Location: Alexandria
(38.8050°N, 77.0470°W)
Time: 04:36:28
(UTC-05:00)

Tiangong 1 - Pass Details

Date: 11 November 2017
Orbit: 283 x 307 km, 42.8° (Epoch: 23 November)

Event Time Altitude Azimuth Distance (km) Brightness Sun altitude
Exits shadow 04:39:57 13° 81° (E) 972 4.0 -24.8°
Drops below altitude 10° 04:40:23 10° 85° (E) 1,137 4.5 -24.7°
Sets 04:42:23 0° 93° (E) 1,962 6.1 -24.3°
